{"data":{"norad_id":63898,"intl_designator":"2025-095J","name":"STARLINK-34120","alt_names":[],"object_type":"PAYLOAD","status":"ACTIVE","operator":null,"country":"US","launch_date":"2025-05-10","launch_site_code":"AFETR","launch_vehicle":null,"mission":null,"orbit_class":"UNKNOWN","rcs_meters":null,"size_class":null,"mass_kg":null,"dimensions":null,"purposes":["comms"],"wikipedia_slug":null,"has_3d_model":false,"image_url":null,"decayed_at":null,"tle_current":{"epoch":"2026-09-19T02:32:19.866336Z","epoch_age_seconds":267503,"freshness":"STALE","line1":"1 63898U 25095J   26262.10578549  .00017672  00000+0  64982-3 0  9996","line2":"2 63898  43.0023 163.4416 0001747 274.1606  85.9046 15.27598022 77375","mean_motion":15.27598022,"eccentricity":0.0001747,"inclination_deg":43.0023,"raan_deg":163.4416,"arg_perigee_deg":274.1606,"mean_anomaly_deg":85.9046,"bstar":0.00064982,"rev_number":7737,"period_min":94.265636591666,"perigee_km":481.79649243532,"apogee_km":484.19377200231,"semimajor_km":6861.1321322188,"source":"CELESTRAK","updated_at":"2026-09-21T09:00:35.144563Z"}}}